Hourly Weather Ruda Śląska

Today, 10 April, Saturday

Time Temperature Precipitation Wind Pressure Humidity
00:00 +5°C° 0 mm 3 mps 737 mmHg 63%
01:00 +5°C° 0 mm 3 mps 737 mmHg 64%
02:00 +4°C° 0 mm 3 mps 737 mmHg 66%
03:00 +4°C° 0 mm 3 mps 737 mmHg 68%
04:00 +4°C° 0 mm 3 mps 736 mmHg 70%
05:00 +4°C° 0 mm 3 mps 737 mmHg 69%
06:00 +5°C° 0 mm 3 mps 737 mmHg 67%
07:00 +6°C° 0 mm 4 mps 737 mmHg 65%
08:00 +8°C° 0 mm 4 mps 737 mmHg 58%
09:00 +10°C° 0 mm 5 mps 737 mmHg 52%
10:00 +13°C° 0 mm 5 mps 737 mmHg 45%
11:00 +14°C° 0 mm 6 mps 737 mmHg 44%
12:00 +15°C° 0 mm 6 mps 737 mmHg 42%
13:00 +16°C° 0 mm 6 mps 737 mmHg 40%
14:00 +15°C° 0 mm 6 mps 737 mmHg 42%
15:00 +15°C° 0 mm 5 mps 737 mmHg 45%
16:00 +15°C° 0 mm 4 mps 737 mmHg 47%
17:00 +14°C° 0 mm 3 mps 737 mmHg 52%
18:00 +12°C° 0 mm 3 mps 738 mmHg 58%
19:00 +12°C° 0 mm 2 mps 738 mmHg 64%
20:00 +11°C° 0 mm 1 mps 738 mmHg 66%
21:00 +11°C° 0 mm 1 mps 738 mmHg 68%
22:00 +10°C° 0 mm 1 mps 738 mmHg 70%
23:00 +10°C° 0 mm 1 mps 738 mmHg 71%

Tomorrow, 11 April, Sunday

Time Temperature Precipitation Wind Pressure Humidity
00:00 +8°C° 0 mm 2 mps 738 mmHg 71%
01:00 +8°C° 0 mm 2 mps 738 mmHg 71%
02:00 +8°C° 0 mm 2 mps 738 mmHg 72%
03:00 +7°C° 0 mm 2 mps 738 mmHg 73%
04:00 +7°C° 0 mm 2 mps 737 mmHg 74%
05:00 +8°C° 0 mm 2 mps 737 mmHg 70%
06:00 +8°C° 0 mm 2 mps 737 mmHg 67%
07:00 +9°C° 0 mm 2 mps 738 mmHg 64%
08:00 +11°C° 0 mm 3 mps 738 mmHg 57%
09:00 +13°C° 0 mm 4 mps 738 mmHg 51%
10:00 +15°C° 0 mm 6 mps 738 mmHg 44%
11:00 +15°C° 0 mm 6 mps 737 mmHg 44%
12:00 +15°C° 0 mm 6 mps 737 mmHg 43%
13:00 +15°C° 0 mm 6 mps 737 mmHg 43%
14:00 +14°C° 0 mm 5 mps 737 mmHg 48%
15:00 +14°C° 0 mm 5 mps 737 mmHg 53%
16:00 +13°C° 0 mm 5 mps 737 mmHg 58%
17:00 +12°C° 0.1 mm 4 mps 737 mmHg 61%
18:00 +12°C° 0.1 mm 4 mps 737 mmHg 63%
19:00 +11°C° 0.1 mm 3 mps 737 mmHg 66%
20:00 +11°C° 0 mm 3 mps 737 mmHg 67%
21:00 +11°C° 0 mm 3 mps 737 mmHg 68%
22:00 +11°C° 0 mm 3 mps 737 mmHg 69%
23:00 +10°C° 0 mm 3 mps 737 mmHg 70%

Day after tomorrow, 12 April, Monday

Time Temperature Precipitation Wind Pressure Humidity
00:00 +10°C° 0 mm 3 mps 737 mmHg 71%
01:00 +10°C° 0 mm 2 mps 736 mmHg 72%
02:00 +10°C° 0 mm 2 mps 736 mmHg 73%
03:00 +10°C° 0 mm 2 mps 736 mmHg 75%
04:00 +11°C° 0 mm 1 mps 736 mmHg 76%
05:00 +11°C° 0 mm 1 mps 736 mmHg 75%
06:00 +11°C° 0 mm 1 mps 736 mmHg 74%
07:00 +11°C° 0 mm 1 mps 736 mmHg 72%
08:00 +12°C° 0 mm 2 mps 737 mmHg 70%
09:00 +12°C° 0 mm 2 mps 737 mmHg 67%
10:00 +13°C° 0 mm 2 mps 737 mmHg 65%
11:00 +12°C° 0 mm 3 mps 737 mmHg 67%
12:00 +11°C° 0 mm 3 mps 737 mmHg 69%
13:00 +11°C° 0 mm 3 mps 738 mmHg 72%
14:00 +11°C° 0 mm 3 mps 738 mmHg 75%
15:00 +10°C° 0 mm 4 mps 738 mmHg 77%
16:00 +8°C° 0 mm 4 mps 738 mmHg 80%
17:00 +8°C° 0 mm 4 mps 739 mmHg 81%
18:00 +7°C° 0 mm 4 mps 739 mmHg 83%
19:00 +6°C° 0 mm 4 mps 739 mmHg 84%
20:00 +5°C° 0 mm 4 mps 740 mmHg 84%
21:00 +5°C° 0 mm 4 mps 740 mmHg 84%
22:00 +4°C° 0 mm 4 mps 740 mmHg 85%
23:00 +3°C° 0.5 mm 4 mps 740 mmHg 88%

13 April, Tuesday

Time Temperature Precipitation Wind Pressure Humidity
00:00 +1°C° 0.5 mm 5 mps 740 mmHg 91%
01:00 +1°C° 0.5 mm 5 mps 740 mmHg 94%
02:00 0°C° 2.2 mm 4 mps 740 mmHg 96%
03:00 -1°C° 2.2 mm 4 mps 740 mmHg 97%
04:00 -1°C° 2.2 mm 4 mps 740 mmHg 99%
05:00 -1°C° 2.2 mm 4 mps 741 mmHg 99%
06:00 -2°C° 2.2 mm 4 mps 741 mmHg 98%
07:00 -2°C° 2.2 mm 5 mps 741 mmHg 98%
08:00 -2°C° 0.7 mm 5 mps 742 mmHg 98%
09:00 -1°C° 0.7 mm 5 mps 742 mmHg 98%
10:00 -1°C° 0.7 mm 5 mps 742 mmHg 98%
11:00 -1°C° 0.2 mm 5 mps 742 mmHg 96%
12:00 0°C° 0.2 mm 5 mps 742 mmHg 93%
13:00 0°C° 0.2 mm 5 mps 743 mmHg 91%
14:00 +1°C° 0.1 mm 5 mps 742 mmHg 89%
15:00 +1°C° 0.1 mm 4 mps 742 mmHg 87%
16:00 +1°C° 0.1 mm 4 mps 742 mmHg 85%
17:00 +1°C° 0.1 mm 4 mps 742 mmHg 86%
18:00 +2°C° 0.1 mm 3 mps 742 mmHg 88%
19:00 +1°C° 0.1 mm 3 mps 742 mmHg 89%
20:00 +1°C° 0.1 mm 3 mps 742 mmHg 89%
21:00 +1°C° 0.1 mm 3 mps 742 mmHg 90%
22:00 +1°C° 0.1 mm 3 mps 742 mmHg 90%
23:00 +1°C° 0.8 mm 3 mps 741 mmHg 92%

14 April, Wednesday

Time Temperature Precipitation Wind Pressure Humidity
00:00 0°C° 0.8 mm 3 mps 741 mmHg 93%
01:00 0°C° 0.8 mm 3 mps 741 mmHg 95%
02:00 0°C° 0.6 mm 3 mps 741 mmHg 96%
03:00 0°C° 0.6 mm 3 mps 741 mmHg 96%
04:00 -2°C° 0.6 mm 4 mps 741 mmHg 96%
05:00 -2°C° 0.5 mm 4 mps 741 mmHg 96%
06:00 -1°C° 0.5 mm 4 mps 741 mmHg 96%
07:00 -1°C° 0.5 mm 4 mps 741 mmHg 97%
08:00 -1°C° 0.4 mm 5 mps 741 mmHg 96%
09:00 -1°C° 0.4 mm 5 mps 741 mmHg 95%
10:00 0°C° 0.4 mm 5 mps 740 mmHg 95%
11:00 0°C° 0.4 mm 5 mps 740 mmHg 94%
12:00 0°C° 0.4 mm 5 mps 740 mmHg 93%
13:00 -1°C° 0.4 mm 6 mps 740 mmHg 92%
14:00 0°C° 1.1 mm 5 mps 740 mmHg 94%
15:00 0°C° 1.1 mm 5 mps 739 mmHg 96%
16:00 -1°C° 1.1 mm 5 mps 739 mmHg 97%
17:00 -2°C° 1.2 mm 6 mps 739 mmHg 97%
18:00 -2°C° 1.2 mm 6 mps 739 mmHg 97%
19:00 -2°C° 1.2 mm 6 mps 739 mmHg 97%
20:00 -3°C° 1.4 mm 6 mps 739 mmHg 98%
21:00 -3°C° 1.4 mm 6 mps 738 mmHg 98%
22:00 -3°C° 1.4 mm 6 mps 738 mmHg 98%
23:00 -3°C° 1.5 mm 6 mps 738 mmHg 98%

15 April, Thursday

Time Temperature Precipitation Wind Pressure Humidity
00:00 -3°C° 1.5 mm 6 mps 737 mmHg 98%
01:00 -3°C° 1.5 mm 6 mps 737 mmHg 98%
02:00 -3°C° 1.6 mm 6 mps 737 mmHg 98%
03:00 -2°C° 1.6 mm 5 mps 737 mmHg 98%
04:00 -2°C° 1.6 mm 5 mps 737 mmHg 98%
05:00 -2°C° 0.8 mm 4 mps 737 mmHg 98%
06:00 -2°C° 0.8 mm 4 mps 737 mmHg 99%
07:00 -2°C° 0.8 mm 4 mps 737 mmHg 99%
08:00 -1°C° 0.6 mm 3 mps 738 mmHg 99%
09:00 -1°C° 0.6 mm 3 mps 738 mmHg 99%
10:00 -1°C° 0.6 mm 3 mps 738 mmHg 99%
11:00 -1°C° 0.6 mm 3 mps 739 mmHg 99%
12:00 -1°C° 0.6 mm 2 mps 739 mmHg 99%
13:00 -1°C° 0.6 mm 2 mps 739 mmHg 99%
14:00 -1°C° 0.5 mm 2 mps 739 mmHg 99%
15:00 -1°C° 0.5 mm 2 mps 740 mmHg 99%
16:00 -1°C° 0.5 mm 2 mps 740 mmHg 99%
17:00 -1°C° 0.4 mm 2 mps 740 mmHg 99%
18:00 -1°C° 0.4 mm 2 mps 740 mmHg 99%
19:00 -1°C° 0.4 mm 2 mps 741 mmHg 99%
20:00 -1°C° 0.1 mm 2 mps 741 mmHg 99%
21:00 -1°C° 0.1 mm 2 mps 741 mmHg 99%
22:00 -1°C° 0.1 mm 2 mps 742 mmHg 99%
23:00 +1°C° 0.1 mm 2 mps 742 mmHg 99%
Show more